Location: Avully
(45.9633°N, 6.0228°E)
Time: 10:19:16
(UTC+00:00)

Cosmos 1703 - Pass Details

Date: 23 May 2024
Orbit: 486 x 499 km, 82.5° (Epoch: 14 June)

Event Time Altitude Azimuth Distance (km) Brightness Sun altitude
Exits shadow 02:01:14 23° 175° (S) 1,116 4.5 -15.4°
Maximum altitude 02:03:28 68° 97° (E) 543 3.3 -15.1°
Drops below altitude 10° 02:07:12 10° 14° (NNE) 1,712 6.9 -14.8°
Sets 02:09:19 0° 12° (NNE) 2,598 8.0 -14.5°
